TimePST,TemperatureF,Dew PointF,Humidity,Sea Level PressureIn,VisibilityMPH,Wind Direction,Wind SpeedMPH,Gust SpeedMPH,PrecipitationIn,Events,Conditions,WindDirDegrees,DateUTC
12:53 AM,28.9,23.0,78,30.10,10.0,WSW,10.4,-,N/A,,Clear,240,2013-02-17 08:53:00
1:53 AM,25.0,21.0,85,30.11,10.0,SW,5.8,-,N/A,,Clear,230,2013-02-17 09:53:00
2:53 AM,25.0,21.9,88,30.10,10.0,West,8.1,-,N/A,,Clear,280,2013-02-17 10:53:00
3:53 AM,24.1,19.9,84,30.10,10.0,WSW,5.8,-,N/A,,Clear,240,2013-02-17 11:53:00
4:53 AM,24.1,19.9,84,30.13,10.0,Calm,Calm,-,N/A,,Clear,0,2013-02-17 12:53:00
5:53 AM,19.9,17.1,89,30.16,10.0,Calm,Calm,-,N/A,,Clear,0,2013-02-17 13:53:00
6:53 AM,21.9,19.0,89,30.16,10.0,West,9.2,-,N/A,,Clear,260,2013-02-17 14:53:00
7:53 AM,27.0,21.9,81,30.14,10.0,West,13.8,-,N/A,,Clear,270,2013-02-17 15:53:00
8:53 AM,30.9,21.0,67,30.16,10.0,West,8.1,-,N/A,,Clear,280,2013-02-17 16:53:00
9:53 AM,32.0,19.0,59,30.17,10.0,West,6.9,-,N/A,,Clear,280,2013-02-17 17:53:00
10:53 AM,34.0,19.0,54,30.17,10.0,WNW,6.9,-,N/A,,Clear,290,2013-02-17 18:53:00
11:53 AM,36.0,19.0,50,30.16,10.0,West,5.8,-,N/A,,Clear,280,2013-02-17 19:53:00
12:53 PM,37.0,19.0,48,30.13,10.0,West,6.9,-,N/A,,Clear,270,2013-02-17 20:53:00
1:53 PM,37.0,21.0,52,30.13,10.0,South,8.1,-,N/A,,Clear,180,2013-02-17 21:53:00
2:53 PM,37.9,21.9,53,30.12,10.0,SSE,6.9,-,N/A,,Clear,160,2013-02-17 22:53:00
3:53 PM,37.9,19.9,48,30.12,10.0,South,10.4,-,N/A,,Clear,180,2013-02-17 23:53:00
4:53 PM,36.0,19.9,52,30.12,10.0,SSW,5.8,-,N/A,,Clear,210,2013-02-18 00:53:00
5:53 PM,30.0,19.9,66,30.14,10.0,SSW,5.8,-,N/A,,Clear,210,2013-02-18 01:53:00
6:53 PM,27.0,21.9,81,30.15,10.0,East,3.5,-,N/A,,Clear,80,2013-02-18 02:53:00
7:53 PM,26.1,23.0,88,30.14,10.0,North,5.8,-,N/A,,Clear,360,2013-02-18 03:53:00
8:53 PM,24.1,21.0,88,30.14,10.0,Calm,Calm,-,N/A,,Clear,0,2013-02-18 04:53:00
9:53 PM,23.0,19.9,88,30.14,10.0,Calm,Calm,-,N/A,,Clear,0,2013-02-18 05:53:00
10:53 PM,23.0,21.0,92,30.13,10.0,North,3.5,-,N/A,,Clear,10,2013-02-18 06:53:00
11:53 PM,23.0,19.9,88,30.12,10.0,Calm,Calm,-,N/A,,Clear,0,2013-02-18 07:53:00